SCP
1 0 0 1 1 1 1 1 1 1 1 1 1 1 1 1 1 1 1 1 1 1 1 1 1 1 1 0 0 -0 0 1
1 1 1 1 1 1 1 1 1 1 1 1 2 2 1 1 1 1 2 2 1 1 1 1 1 1 1 0 0 0 0 1
1 1 1 1 1 1 1 1 1 1 2 2 2 1 1 1 1 1 2 2 1 1 1 1 1 1 0 0 0 0 1 0
1 2 2 1 2 1 2 2 2 2 2 2 2 2 2 1 1 2 2 2 1 1 1 1 1 1 1 0 1 0 1 0
1 2 2 2 2 2 3 2 3 3 3 4 4 3 3 3 3 3 4 1 1 1 1 1 1 1 1 1 1 1 1 0
1 2 2 2 2 2 2 3 3 4 3 4 5 6 6 7 6 4 4 4 2 1 1 1 1 1 1 1 1 2 1 0
1 2 2 2 3 1 2 2 3 3 3 5 5 6 7 7 7 7 5 5 4 2 1 1 2 2 2 1 1 1 0 0
1 1 1 2 2 2 2 4 3 3 4 4 7 8 9 9 9 8 8 6 5 3 0 1 2 2 3 2 2 1 1 1
1 1 0 0 3 2 3 2 5 3 3 4 4 6 8 9 11 12 11 10 7 4 2 2 2 2 1 2 2 1 2 0
0 1 2 2 3 3 3 4 4 4 5 5 4 5 7 9 11 9 7 5 2 2 0 0 1 0 0 1 0 0 0 0
0 0 0 1 3 4 3 4 5 5 4 5 3 4 6 7 6 5 2 1 0 0 0 0 0 0 0 0 0 0 0 0
0 0 0 0 0 1 4 5 5 4 5 6 4 6 5 8 7 3 0 0 0 0 0 0 0 0 0 0 0 0 0 0
0 0 0 0 0 0 0 0 0 0 0 0 4 5 6 6 6 1 0 0 0 0 0 0 0 0 0 0 0 0 0 0
0 0 0 0 0 0 0 0 0 0 0 0 0 0 3 5 4 0 0 0 0 0 0 0 0 0 0 0 0 0 0 0
0 0 0 0 0 0 0 0 0 0 0 0 0 0 0 0 1 0 0 0 0 0 0 0 0 0 0 0 0 0 0 0
0 0 0 0 0 0 0 0 0 0 0 0 0 0 0 0 0 0 0 0 0 0 0 0 0 0 0 0 0 0 0 0
0 0 0 0 0 0 0 0 0 0 0 0 0 0 0 0 0 0 0 0 0 0 0 0 0 0 0 0 0 0 0 0
0 0 0 0 0 0 0 0 0 0 0 0 0 0 0 0 0 0 0 0 0 0 0 0 0 0 0 0 0 0 0 0
0 0 0 0 0 0 0 0 0 0 0 0 0 0 0 -0 0 0 0 0 0 0 0 0 0 0 0 0 0 0 0 0
0 0 0 0 0 0 0 0 0 0 0 0 0 0 0 0 0 -0 -0 0 0 0 0 0 0 0 0 0 0 0 0 0
Wind_Speed_500mb
24 22 31 36 41 43 45 44 43 46 50 53 56 57 56 53 48 45 42 40 39 35 33 34 34 32 31 29 30 28 25 19
28 32 32 39 45 49 51 50 48 48 51 56 58 60 59 58 56 54 50 47 43 38 39 39 38 36 34 34 32 31 24 25
29 29 34 41 48 52 56 56 54 53 55 58 60 60 65 66 63 62 56 52 48 44 43 43 42 40 38 37 35 34 22 24
24 28 30 36 42 45 53 63 62 62 63 65 67 69 60 63 66 69 62 58 54 49 45 47 45 47 46 44 44 29 38 23
26 30 31 34 37 39 50 47 56 65 70 69 62 58 58 60 52 62 69 64 59 54 50 52 52 49 51 51 41 39 40 25
25 26 33 36 38 44 49 55 55 55 55 69 66 65 66 70 64 67 63 59 63 60 60 59 55 51 43 45 41 47 34 32
19 27 32 37 42 41 44 50 59 66 60 60 69 72 71 72 74 68 62 59 67 56 62 62 57 54 53 46 53 53 37 35
26 26 26 35 43 44 45 48 61 55 63 71 68 75 74 75 74 72 67 67 72 65 56 60 51 59 61 55 57 54 46 40
27 31 30 36 37 51 47 52 52 54 61 63 74 80 76 76 78 77 79 73 77 76 67 57 67 71 66 61 60 60 58 49
25 23 20 16 21 45 49 50 54 56 58 60 62 71 79 86 91 93 91 90 91 91 87 77 80 80 63 65 66 66 63 66
30 30 28 24 26 38 42 43 52 58 63 63 67 69 72 83 94 91 88 86 94 92 93 87 84 68 57 80 79 75 76 70
30 31 38 35 25 17 22 29 38 47 54 65 67 75 77 82 79 90 89 97 96 100 104 96 83 62 63 76 86 77 77 85
35 37 38 33 31 30 21 25 26 33 52 59 60 66 78 85 92 83 91 98 91 94 100 92 86 79 69 87 80 85 88 84
32 35 38 37 34 29 33 37 32 31 30 33 53 71 71 70 82 92 89 95 90 97 98 94 94 93 91 81 64 76 78 73
36 37 39 37 39 34 34 32 36 39 32 32 35 37 60 71 77 89 90 97 105 104 107 102 101 103 98 70 48 36 81 86
33 38 41 42 46 44 43 42 42 39 40 41 37 35 41 42 48 55 73 100 112 109 99 104 109 111 104 94 88 59 59 53
35 38 37 37 40 42 47 49 45 44 42 43 46 44 42 40 45 38 29 44 61 74 77 105 120 107 117 109 87 67 69 61
39 40 42 42 45 48 48 56 61 57 50 50 46 44 49 48 46 40 46 46 50 58 57 73 78 91 93 99 103 105 87 79
40 44 50 51 53 55 56 58 59 62 59 56 50 46 44 44 50 52 53 48 47 43 32 54 78 86 96 98 94 116 88 93
43 48 53 53 56 59 60 61 63 61 57 55 48 43 39 38 40 40 44 51 54 52 51 54 43 81 83 96 106 103 89 94
Wind_Direction_500mb
241 251 235 228 226 224 226 227 226 225 227 230 230 230 230 231 231 232 229 229 231 231 230 230 226 221 215 207 192 176 157 185
253 255 239 234 231 229 228 227 228 228 230 232 233 233 233 231 233 233 230 227 229 231 232 233 232 228 220 214 201 177 164 214
251 238 243 233 230 232 230 230 229 230 232 234 235 234 234 232 234 235 232 231 230 227 230 233 232 229 225 219 208 196 208 201
237 231 232 243 228 227 235 232 231 231 231 233 230 230 229 229 233 232 232 231 230 229 228 231 230 230 222 216 215 203 212 203
249 243 232 234 250 224 237 226 232 233 231 231 233 224 223 233 227 238 231 229 228 228 226 228 227 227 225 215 207 215 215 212
263 255 250 245 236 260 247 236 228 225 233 232 222 230 225 225 230 231 231 227 220 226 227 227 226 221 222 212 204 219 210 220
277 271 262 254 249 237 253 262 246 238 224 235 233 227 226 227 232 227 232 220 228 218 223 226 223 218 221 213 205 213 208 225
322 285 251 258 255 247 242 254 264 254 242 231 235 233 233 232 234 233 228 221 228 221 217 222 213 221 216 212 210 210 203 228
340 331 309 243 262 263 255 245 257 263 252 255 241 237 235 238 237 232 234 227 225 219 223 213 212 220 211 212 214 213 211 220
357 343 338 316 273 279 280 264 255 261 259 255 261 246 244 241 244 244 247 239 235 232 236 225 222 223 208 220 220 214 212 209
14 12 0 336 272 261 272 273 267 265 266 266 257 253 250 243 245 250 249 246 235 232 231 237 232 213 237 231 222 224 215 212
23 16 12 8 359 335 293 279 276 271 268 268 264 258 251 250 251 247 244 240 239 234 235 238 240 226 237 231 228 226 217 208
14 9 6 8 1 352 316 302 291 281 271 267 271 267 263 252 248 250 245 243 247 241 235 230 219 220 223 220 223 217 217 212
5 0 357 357 354 354 343 331 322 305 303 282 264 256 258 260 250 247 253 248 245 240 235 224 219 228 217 214 194 199 200 194
354 350 350 348 345 337 332 326 318 316 299 296 286 263 239 245 251 248 248 243 241 237 233 230 224 221 215 198 183 205 207 222
349 346 341 334 336 332 328 322 312 304 307 303 290 290 265 255 242 243 249 257 243 239 237 233 227 216 210 208 204 203 197 207
336 335 332 329 323 317 313 307 301 298 295 295 293 290 284 288 280 277 264 240 244 241 235 248 217 229 208 203 202 201 210 201
333 334 321 319 318 318 312 305 302 297 288 283 281 282 281 278 282 285 289 276 258 247 244 228 210 220 222 209 219 208 204 206
330 325 323 321 316 312 309 302 294 291 287 282 279 277 277 283 277 272 272 274 278 263 251 248 224 239 230 232 230 223 215 213
322 320 317 315 310 307 307 301 294 288 281 280 278 277 278 277 274 276 278 276 272 271 257 249 248 239 236 230 230 219 212 209
Wind_Speed_850mb
24 22 31 36 41 43 45 44 43 46 50 53 56 57 56 53 48 45 42 40 39 35 33 34 34 32 31 29 30 28 25 19
28 32 32 39 45 49 51 50 48 48 51 56 58 60 59 58 56 54 50 47 43 38 39 39 38 36 34 34 32 31 24 25
29 29 34 41 48 52 56 56 54 53 55 58 60 60 65 66 63 62 56 52 48 44 43 43 42 40 38 37 35 34 22 24
24 28 30 36 42 45 53 63 62 62 63 65 67 69 60 63 66 69 62 58 54 49 45 47 45 47 46 44 44 29 38 23
26 30 31 34 37 39 50 47 56 65 70 69 62 58 58 60 52 62 69 64 59 54 50 52 52 49 51 51 41 39 40 25
25 26 33 36 38 44 49 55 55 55 55 69 66 65 66 70 64 67 63 59 63 60 60 59 55 51 43 45 41 47 34 32
19 27 32 37 42 41 44 50 59 66 60 60 69 72 71 72 74 68 62 59 67 56 62 62 57 54 53 46 53 53 37 35
26 26 26 35 43 44 45 48 61 55 63 71 68 75 74 75 74 72 67 67 72 65 56 60 51 59 61 55 57 54 46 40
27 31 30 36 37 51 47 52 52 54 61 63 74 80 76 76 78 77 79 73 77 76 67 57 67 71 66 61 60 60 58 49
25 23 20 16 21 45 49 50 54 56 58 60 62 71 79 86 91 93 91 90 91 91 87 77 80 80 63 65 66 66 63 66
30 30 28 24 26 38 42 43 52 58 63 63 67 69 72 83 94 91 88 86 94 92 93 87 84 68 57 80 79 75 76 70
30 31 38 35 25 17 22 29 38 47 54 65 67 75 77 82 79 90 89 97 96 100 104 96 83 62 63 76 86 77 77 85
35 37 38 33 31 30 21 25 26 33 52 59 60 66 78 85 92 83 91 98 91 94 100 92 86 79 69 87 80 85 88 84
32 35 38 37 34 29 33 37 32 31 30 33 53 71 71 70 82 92 89 95 90 97 98 94 94 93 91 81 64 76 78 73
36 37 39 37 39 34 34 32 36 39 32 32 35 37 60 71 77 89 90 97 105 104 107 102 101 103 98 70 48 36 81 86
33 38 41 42 46 44 43 42 42 39 40 41 37 35 41 42 48 55 73 100 112 109 99 104 109 111 104 94 88 59 59 53
35 38 37 37 40 42 47 49 45 44 42 43 46 44 42 40 45 38 29 44 61 74 77 105 120 107 117 109 87 67 69 61
39 40 42 42 45 48 48 56 61 57 50 50 46 44 49 48 46 40 46 46 50 58 57 73 78 91 93 99 103 105 87 79
40 44 50 51 53 55 56 58 59 62 59 56 50 46 44 44 50 52 53 48 47 43 32 54 78 86 96 98 94 116 88 93
43 48 53 53 56 59 60 61 63 61 57 55 48 43 39 38 40 40 44 51 54 52 51 54 43 81 83 96 106 103 89 94
Wind_Direction_850mb
241 251 235 228 226 224 226 227 226 225 227 230 230 230 230 231 231 232 229 229 231 231 230 230 226 221 215 207 192 176 157 185
253 255 239 234 231 229 228 227 228 228 230 232 233 233 233 231 233 233 230 227 229 231 232 233 232 228 220 214 201 177 164 214
251 238 243 233 230 232 230 230 229 230 232 234 235 234 234 232 234 235 232 231 230 227 230 233 232 229 225 219 208 196 208 201
237 231 232 243 228 227 235 232 231 231 231 233 230 230 229 229 233 232 232 231 230 229 228 231 230 230 222 216 215 203 212 203
249 243 232 234 250 224 237 226 232 233 231 231 233 224 223 233 227 238 231 229 228 228 226 228 227 227 225 215 207 215 215 212
263 255 250 245 236 260 247 236 228 225 233 232 222 230 225 225 230 231 231 227 220 226 227 227 226 221 222 212 204 219 210 220
277 271 262 254 249 237 253 262 246 238 224 235 233 227 226 227 232 227 232 220 228 218 223 226 223 218 221 213 205 213 208 225
322 285 251 258 255 247 242 254 264 254 242 231 235 233 233 232 234 233 228 221 228 221 217 222 213 221 216 212 210 210 203 228
340 331 309 243 262 263 255 245 257 263 252 255 241 237 235 238 237 232 234 227 225 219 223 213 212 220 211 212 214 213 211 220
357 343 338 316 273 279 280 264 255 261 259 255 261 246 244 241 244 244 247 239 235 232 236 225 222 223 208 220 220 214 212 209
14 12 0 336 272 261 272 273 267 265 266 266 257 253 250 243 245 250 249 246 235 232 231 237 232 213 237 231 222 224 215 212
23 16 12 8 359 335 293 279 276 271 268 268 264 258 251 250 251 247 244 240 239 234 235 238 240 226 237 231 228 226 217 208
14 9 6 8 1 352 316 302 291 281 271 267 271 267 263 252 248 250 245 243 247 241 235 230 219 220 223 220 223 217 217 212
5 0 357 357 354 354 343 331 322 305 303 282 264 256 258 260 250 247 253 248 245 240 235 224 219 228 217 214 194 199 200 194
354 350 350 348 345 337 332 326 318 316 299 296 286 263 239 245 251 248 248 243 241 237 233 230 224 221 215 198 183 205 207 222
349 346 341 334 336 332 328 322 312 304 307 303 290 290 265 255 242 243 249 257 243 239 237 233 227 216 210 208 204 203 197 207
336 335 332 329 323 317 313 307 301 298 295 295 293 290 284 288 280 277 264 240 244 241 235 248 217 229 208 203 202 201 210 201
333 334 321 319 318 318 312 305 302 297 288 283 281 282 281 278 282 285 289 276 258 247 244 228 210 220 222 209 219 208 204 206
330 325 323 321 316 312 309 302 294 291 287 282 279 277 277 283 277 272 272 274 278 263 251 248 224 239 230 232 230 223 215 213
322 320 317 315 310 307 307 301 294 288 281 280 278 277 278 277 274 276 278 276 272 271 257 249 248 239 236 230 230 219 212 209